Home   Weather   Nairobi   Past weeks
Flag for Kenya

Past Weather in Nairobi, Kenya — Yesterday and Last 2 Weeks

Now
75 °F

Partly sunny.


Feels Like: 78 °F
Forecast: 76 / 53 °F
Wind: 12 mph from Northeast

Location: Nairobi / Wilson

Current Time: Jul 23, 2019 at 7:01:32 pm

Latest Report: Jul 23, 2019 at 6:00 pm


Visibility: N/A

Pressure: 30.09 "Hg (24.80 "Hg at 1680m altitude)

Humidity: 47%

Dew Point: 54 °F

Location of NairobiLocation

Past Weather in Nairobi — Graph

°F

Nairobi Temperature Yesterday

Maximum temperature yesterday: 75 °F (at 4:00 pm)
Minimum temperature yesterday: 57 °F (at 3:00 am)
Average temperature yesterday: 65 °F

High & Low Weather Summary for the Past Weeks

 TemperatureHumidityPressure
High79 °F (Jul 21, 2:00 pm)100% (Jul 17, 7:00 am)30.30 "Hg (Jul 17, 7:00 am)
Low54 °F (Jul 23, 6:00 am)34% (Jul 9, 5:00 pm)30.07 "Hg (Jul 21, 5:00 pm)
Average66 °F66%30.20 "Hg
* Reported Jul 8 5:00 pm — Jul 23 5:00 pm, Nairobi. Weather by CustomWeather, © 2019

Note: Actual official high and low records may vary slightly from our data, if they occured in-between our weather recording intervals... More about our weather records

Advertising

Nairobi Weather History for the Previous 24 Hours

Scroll right to see more
 ConditionsComfort  
Time TempWeatherWind HumidityBarometerVisibility
5:00 pm
Tue, Jul 23
75 °FPartly sunny.3 mph44%30.09 "HgN/A
3:00 pm75 °FPartly sunny.No wind44%30.09 "HgN/A
2:00 pm75 °FPartly sunny.6 mph44%30.09 "HgN/A
1:00 pm75 °FPartly sunny.8 mph47%30.15 "HgN/A
12:00 pm72 °FPartly sunny.No wind53%30.15 "HgN/A
11:00 am70 °FScattered clouds.9 mph53%30.15 "HgN/A
10:00 am64 °FPassing clouds.No wind64%30.18 "HgN/A
9:00 am61 °FPartly sunny.No wind68%30.18 "HgN/A
8:00 am59 °FScattered clouds.No wind77%30.15 "HgN/A
7:00 am54 °FPartly sunny.No wind88%30.15 "HgN/A
6:00 am54 °FClear.No wind77%30.12 "Hg10 mi
5:00 am55 °FClear.No wind82%30.12 "Hg10 mi
2:00 am61 °FClear.No wind83%30.12 "HgN/A
12:00 am63 °FClear.No wind77%30.15 "Hg10 mi
11:00 pm
Mon, Jul 22
64 °FClear.No wind78%30.18 "HgN/A
10:00 pm66 °FPassing clouds.5 mph73%30.15 "HgN/A
9:00 pm66 °FPassing clouds.7 mph68%30.15 "HgN/A
8:00 pm68 °FPassing clouds.6 mph60%30.15 "HgN/A
7:00 pm70 °FPassing clouds.7 mph50%30.12 "HgN/A
Weather by CustomWeather, © 2019

See weather overview